カタログに戻る

SKYNET 4E

運用中軍事GEO
NORAD 25639·PAYLOAD·🇬🇧 United Kingdom

打ち上げ Feb 26, 1999 から Guiana Space Centre

Loading…

TLE

最新Source: Space-Track

元期: Sep 14, 2026, 13:44 UTC

1 25639U 99009B   26257.57286102 -.00000247  00000-0  00000-0 0  9999
2 25639  12.1239   8.5932 0003444 233.5328 126.1149  0.99031082 52039

AllMySatでSKYNET 4Eをリアルタイム追跡

Download on the App Store